[Iaude] MPEC O47: 2019 UU173 [a=53.39,e=0.25,i=25.4,H=8.37]
    mpec at cfa.harvard.edu 
    mpec at cfa.harvard.edu
       
    Thu Jul 25 13:10:18 EDT 2024
    
    
  
M.P.E.C. 2024-O47                                 Issued 2024 July 25, 17:08 UT
     The Minor Planet Electronic Circulars contain information on unusual
         minor planets, routine data on comets and natural satellites,
         and occasional editorial announcements.  They are published
    on behalf of Division F of the International Astronomical Union by the
          Minor Planet Center, Smithsonian Astrophysical Observatory,
                          Cambridge, MA 02138, U.S.A.
			  
             Prepared using the Tamkin Foundation Computer Network
                              MPC at CFA.HARVARD.EDU
            URL https://www.minorplanetcenter.net/    ISSN 1523-6714
                                   2019 UU173                                   
Additional Observations:
     K19UH3U @C2014 10 02.36770402 00 30.566-09 26 15.39               WEO047W84
     K19UH3U @C2014 10 02.36864602 00 30.566-09 26 15.39               WEO047W84
     K19UH3U @C2014 10 14.33074101 59 34.613-09 31 45.26               WEO047W84
     K19UH3U @C2014 10 14.33178301 59 34.613-09 31 45.26               WEO047W84
     K19UH3U 1C2015 12 15.34236102 00 17.71 -08 37 35.0                WEO047T09
     K19UH3U 1C2015 12 15.35616702 00 17.67 -08 37 34.7                WEO047T09
     K19UH3U 1C2015 12 15.37864202 00 17.61 -08 37 34.4                WEO047T09
     K19UH3U @C2018 11 09.15147002 18 06.850-05 37 27.54               WEO047W84
     K19UH3U @C2018 11 09.15320602 18 06.842-05 37 27.61               WEO047W84
     K19UH3U @C2018 11 09.15491902 18 06.841-05 37 27.76               WEO047W84
     K19UH3U @C2018 11 29.15555602 16 35.267-05 39 25.28               WEO047W84
     K19UH3U @C2018 11 29.15729202 16 35.255-05 39 25.49               WEO047W84
     K19UH3U @C2018 11 29.15900402 16 35.254-05 39 25.49               WEO047W84
     K19UH3U @C2018 12 01.06509302 16 27.420-05 39 22.27               WEO047W84
     K19UH3U @C2018 12 01.06647002 16 27.412-05 39 22.44               WEO047W84
     K19UH3U @C2022 08 29.35545102 43 03.458-01 04 00.23               WEO047W84
     K19UH3U @C2022 08 29.35766202 43 03.441-01 04 00.39               WEO047W84
     K19UH3U @C2022 08 29.36002302 43 03.435-01 04 00.49               WEO047W84
     K19UH3U @C2022 09 05.33246502 42 51.470-01 06 52.83               WEO047W84
     K19UH3U @C2022 09 05.33468802 42 51.445-01 06 52.90               WEO047W84
     K19UH3U @C2022 09 05.33706002 42 51.444-01 06 52.74               WEO047W84
Observer details:
T09 Subaru Telescope, Maunakea.  Observer .  Measurer S. Deen.  8.3-m Subaru
    Telescope + CCD.
W84 Cerro Tololo-DECam.  Observers S. Bhargava, R. Wilkinson, D. Turner, Y.
    Zhang, M. Kirby, J. DeRose, L. Lidman, P. Aldoroty, F. Sobreira, A.
    Carnero, A. Elliott.  Measurers A. Manaka, M. Konohata, C. Sakurai, Y.
    Nanami, M. Morino, M. Inose, S. Ibe, A. Usami, M. Suzuya, Y. Endo, H.
    Itosaki.  4.0-m CTIO reflector + DECam.
First and last observations above in comparison with prediction:
Residuals in seconds of arc, reference and Delta-T
141002 W84 13.6+ 19.3+    220905 W84 14.6+  6.6+    MPO811074    -467 days
Orbital elements:
2019 UU173                                                                      
Epoch 2024 Oct. 17.0 TT = JDT 2460600.5                 Alexandersen            
M   6.12355              (2000.0)            P               Q                  
n   0.00252673     Peri.  313.25973     +0.82616225     -0.38475402             
a  53.3862959      Node    73.38282     +0.55437831     +0.68553771             
e   0.2525003      Incl.   25.43876     -0.10060131     +0.61806342             
P 390              H    8.37          G   0.15           U   4                  
Residuals in seconds of arc
141002 W84  0.2-  0.0     191127 T09  0.2-  0.1-    191228 T09  0.1-  0.1-
141002 W84  0.2-  0.0     191127 T09  0.1+  0.3+    191228 T09  0.1-  0.1+
141014 W84  0.7-  0.4-    191127 T09  0.1+  0.1+    191228 T09  0.2-  0.2+
141014 W84  0.7-  0.4-    191127 T09  0.1-  0.0     200101 T09  0.3-  0.1-
151215 T09  0.8+  0.2+    191129 T09  0.1+  0.1-    200101 T09  0.2-  0.0
151215 T09  0.8+  0.3+    191129 T09  0.1-  0.3+    200101 T09  0.1-  0.1-
151215 T09  0.9+  0.2+    191129 T09  0.1+  0.1-    200101 T09  0.0   0.1-
181109 W84  0.1+  0.0     191201 T09  0.0   0.2+    200101 T09  0.1-  0.2+
181109 W84  0.1+  0.0     191201 T09  0.1-  0.1-    200101 T09  0.0   0.1+
181109 W84  0.2+  0.2-    191201 T09  0.0   0.0     200101 T09  0.1-  0.1+
181129 W84  0.2+  0.2+    191202 T09  0.0   0.1+    200101 T09  0.2-  0.2+
181129 W84  0.1+  0.1-    191202 T09  0.1-  0.1+    200101 T09  0.2-  0.3-
181129 W84  0.2+  0.1-    191202 T09  0.2-  0.1+    200101 T09  0.3-  0.1-
181201 W84  0.1+  0.1+    191202 T09  0.4-  0.2-    200101 T09  0.2-  0.1+
181201 W84  0.1+  0.1-    191202 T09  0.2-  0.0     200101 T09  0.0   0.1-
190929 T09  0.2+  0.1+    191204 T09  0.1-  0.1-    200101 T09  0.2-  0.0
190929 T09  0.0   0.0     191204 T09  0.0   0.3-    200120 T09  0.1+  0.0
190929 T09  0.1+  0.1-    191204 T09  0.4-  0.2+    200120 T09  0.1+  0.1+
190929 T09  0.1+  0.1-    191204 T09  0.1-  0.1+    200120 T09  0.2-  0.1+
190929 T09  0.3+  0.1-    191204 T09  0.2-  0.1+    200120 T09  0.2-  0.0
190929 T09  0.1+  0.3-    191204 T09  0.1-  0.1-    200120 T09  0.2-  0.2+
191023 T09  0.0   0.1+    191204 T09  0.0   0.1-    200120 T09  0.2-  0.1+
191023 T09  0.1+  0.0     191204 T09  0.3-  0.0     200120 T09  0.2+  0.1+
191023 T09  0.1+  0.3-    191204 T09  0.0   0.0     200120 T09  0.2-  0.1+
191023 T09  0.2-  0.0     191204 T09  0.3-  0.2+    200120 T09  0.3-  0.1-
191023 T09  0.1+  0.1+    191204 T09  0.2-  0.2+    200120 T09  0.3-  0.0
191023 T09  0.0   0.1+    191204 T09  0.1-  0.1+    200120 T09  0.3-  0.1+
191027 T09  0.1-  0.2-    191204 T09  0.1-  0.1+    200120 T09  0.3-  0.1+
191027 T09  0.2+  0.8-    191204 T09  0.0   0.1+    200120 T09  0.3-  0.1-
191027 T09  0.1+  0.3-    191204 T09  0.0   0.3+    200120 T09  0.2-  0.0
191027 T09  0.0   0.1-    191204 T09  0.2-  0.3+    200120 T09  0.0   0.1-
191027 T09  0.1+  0.2-    191204 T09  0.1-  0.0     200120 T09  0.2-  0.0
191027 T09  0.2+  0.0     191204 T09  0.3-  0.0     200120 T09  0.0   0.1+
191027 T09  0.0   0.2-    191204 T09  0.0   0.1-    200126 T09  0.0   0.0
191027 T09  0.3+  0.3-    191204 T09  0.1-  0.1+    200126 T09  0.1-  0.0
191027 T09  0.1-  0.2-    191204 T09  0.1-  0.1+    200126 T09  0.1-  0.0
191027 T09  0.4+  0.0     191222 T09  0.1-  0.1+    200126 T09  0.0   0.3+
191027 T09  0.1-  0.1+    191222 T09  0.0   0.0     200126 T09  0.1+  0.3+
191031 T09  0.1-  0.3+    191222 T09  0.1+  0.1-    200126 T09  0.1+  0.1+
191031 T09  0.0   0.1+    191222 T09  0.0   0.2-    200126 T09  0.0   0.0
191031 T09  0.1+  0.0     191222 T09  0.1+  0.0     200126 T09  0.0   0.2+
191101 T09  0.0   0.1+    191222 T09  0.1-  0.2+    200126 T09  0.1-  0.2+
191101 T09  0.1-  0.0     191222 T09  0.2-  0.1-    200126 T09  0.4-  0.0
191101 T09  0.0   0.2+    191222 T09  0.0   0.1-    200126 T09  0.1-  0.1-
191101 T09  0.1-  0.1+    191222 T09  0.0   0.2-    200126 T09  0.2-  0.1-
191101 T09  0.1+  0.0     191222 T09  0.1-  0.0     200126 T09  0.2-  0.2-
191101 T09  0.1+  0.0     191222 T09  0.1+  0.1+    200126 T09  0.1+  0.0
191101 T09  0.1-  0.0     191222 T09  0.1-  0.0     200126 T09  0.1+  0.0
191101 T09  0.2-  0.0     191228 T09  0.2-  0.3+    200126 T09  0.1+  0.1-
191102 T09  0.1-  0.1+    191228 T09  0.1-  0.1-    200126 T09  0.2+  0.0
191102 T09  0.3-  0.1+    191228 T09  0.0   0.0     200126 T09  0.0   0.2+
191102 T09  0.1-  0.0     191228 T09  0.0   0.1+    220829 W84  0.3+  0.1+
191102 T09  0.2-  0.1+    191228 T09  0.0   0.2+    220829 W84  0.1+  0.0
191102 T09  0.1+  0.0     191228 T09  0.1-  0.3+    220829 W84  0.0   0.1-
191127 T09  0.2-  0.0     191228 T09  0.0   0.0     220905 W84  0.3+  0.3-
191127 T09  0.0   0.3+    191228 T09  0.1-  0.1+    220905 W84  0.0   0.3-
191127 T09  0.0   0.1-    191228 T09  0.1+  0.1+    220905 W84  0.1+  0.1-
191127 T09  0.1-  0.1-    191228 T09  0.1-  0.0
191127 T09  0.0   0.0     191228 T09  0.0   0.1-
Ephemeris:
2019 UU173               a,e,i = 53.39, 0.25, 25                 q = 39.9062
Date    TT    R. A. (2000) Decl.     Delta      r    Elong.  Phase     V
2024 06 25    02 51 09.3 +01 05 12  40.6152 40.0308    54.3     1.2    24.6
...
2024 07 10    02 52 08.1 +01 06 22  40.4060 40.0325    67.8     1.3    24.6
...
2024 07 18    02 52 32.3 +01 06 10  40.2838 40.0333    75.0     1.4    24.6
...
2024 07 24    02 52 46.8 +01 05 38  40.1890 40.0340    80.5     1.4    24.6
2024 07 25    02 52 48.9 +01 05 31  40.1730 40.0341    81.4     1.4    24.6
2024 07 26    02 52 51.0 +01 05 24  40.1570 40.0342    82.3     1.4    24.6
...
2024 08 01    02 53 01.2 +01 04 29  40.0602 40.0349    87.8     1.5    24.6
...
2024 08 09    02 53 09.7 +01 02 49  39.9306 40.0358    95.2     1.4    24.6
...
2024 08 24    02 53 09.3 +00 58 33  39.6943 40.0374   109.2     1.4    24.6
M. P. C. Staff               (C) Copyright 2024 MPC           M.P.E.C. 2024-O47
    
    
More information about the Iaude
mailing list